WXM80 ListenWXM80 Stop

You find our weather info also at:

UK Metoffice

WeatherCloud

Weather Underground

Northeastern Weather Network

AWEKAS

Citizen Weather Observer Program (CWOP)

HAMweather, WeatherForYou, PWS Weather


Weather Underground History page Text

Daily Summary for February 12, 2018 Units:  English    Metric   Both
« Previous Day
Next Day »
Daily Weekly Monthly Yearly Custom
  High: Low: Average:
Temperature: 58.2 °F 31.8 °F 42.9 °F
Dew Point: 57.9 °F 23.1 °F 37.9 °F
Humidity: 99 % 68 % 83 %
Wind Speed: 9.2 mph 0.0 mph 3 mph
Wind Gust: 13.8 mph - -
Wind:- - WSW
Pressure: 30.43 in 29.65 in -
Precipitation: 0.00 in    
Historical Graphs
 
 
Tabular Data for February 12, 2018
Time Temperature Dew Point Pressure Wind Wind Speed Wind Gust Humidity Rainfall Rate (Hourly)
00:01 56.8 °F 56.2 °F 29.65 in SSE 7.0 mph 7.0 mph 98 % 0.00 in
00:06 56.7 °F 56.1 °F 29.65 in SSW 6.2 mph 10.4 mph 98 % 0.00 in
00:11 56.7 °F 56.1 °F 29.65 in South 6.0 mph 7.0 mph 98 % 0.00 in
00:16 56.7 °F 56.1 °F 29.65 in South 4.3 mph 8.1 mph 98 % 0.00 in
00:22 56.7 °F 56.1 °F 29.65 in SSW 3.9 mph 8.0 mph 98 % 0.00 in
00:27 56.6 °F 56.0 °F 29.65 in SSW 4.1 mph 4.6 mph 98 % 0.00 in
00:32 56.6 °F 56.0 °F 29.65 in South 2.9 mph 5.8 mph 98 % 0.00 in
00:37 56.6 °F 56.0 °F 29.65 in SSW 4.0 mph 11.5 mph 98 % 0.00 in
00:42 56.7 °F 56.1 °F 29.66 in SSW 4.9 mph 10.4 mph 98 % 0.00 in
00:47 56.9 °F 56.3 °F 29.66 in SSW 3.8 mph 5.8 mph 98 % 0.00 in
00:52 57.1 °F 56.5 °F 29.65 in SSW 2.2 mph 3.5 mph 98 % 0.00 in
00:57 57.1 °F 56.5 °F 29.66 in WSW 5.0 mph 9.2 mph 98 % 0.00 in
01:02 57.2 °F 56.6 °F 29.66 in SW 4.6 mph 6.0 mph 98 % 0.00 in
01:07 57.2 °F 56.6 °F 29.66 in SW 3.6 mph 5.0 mph 98 % 0.00 in
01:12 57.3 °F 57.0 °F 29.67 in SSW 0.8 mph 3.5 mph 99 % 0.00 in
01:17 57.4 °F 57.1 °F 29.67 in WSW 3.0 mph 6.9 mph 99 % 0.00 in
01:22 57.5 °F 57.2 °F 29.68 in SW 1.8 mph 6.0 mph 99 % 0.00 in
01:27 57.6 °F 57.0 °F 29.68 in West 4.3 mph 10.4 mph 98 % 0.00 in
01:32 57.7 °F 57.1 °F 29.68 in WSW 1.5 mph 6.9 mph 98 % 0.00 in
01:37 57.8 °F 57.2 °F 29.68 in South 2.9 mph 10.4 mph 98 % 0.00 in
01:42 58.0 °F 57.7 °F 29.68 in SW 4.3 mph 8.1 mph 99 % 0.00 in
01:47 58.1 °F 57.8 °F 29.68 in WSW 2.8 mph 4.6 mph 99 % 0.00 in
01:53 58.1 °F 57.8 °F 29.68 in SSW 5.8 mph 9.2 mph 99 % 0.00 in
01:58 58.2 °F 57.9 °F 29.68 in WSW 3.0 mph 4.6 mph 99 % 0.00 in
02:03 58.2 °F 57.9 °F 29.68 in SSW 4.6 mph 8.1 mph 99 % 0.00 in
02:08 58.1 °F 57.8 °F 29.68 in SW 2.9 mph 3.5 mph 99 % 0.00 in
02:13 58.1 °F 57.8 °F 29.69 in SSW 4.3 mph 6.9 mph 99 % 0.00 in
02:18 58.0 °F 57.4 °F 29.69 in SW 5.2 mph 8.1 mph 98 % 0.00 in
02:23 58.0 °F 57.4 °F 29.70 in SSW 3.2 mph 4.6 mph 98 % 0.00 in
02:28 57.9 °F 57.3 °F 29.70 in SSW 4.7 mph 6.9 mph 98 % 0.00 in
02:33 57.8 °F 57.2 °F 29.70 in WSW 3.4 mph 6.0 mph 98 % 0.00 in
02:38 57.8 °F 57.2 °F 29.70 in SSW 4.3 mph 6.9 mph 98 % 0.00 in
02:43 57.8 °F 57.2 °F 29.70 in WSW 3.1 mph 6.0 mph 98 % 0.00 in
02:48 57.8 °F 57.2 °F 29.70 in WSW 3.5 mph 5.8 mph 98 % 0.00 in
02:53 57.8 °F 57.2 °F 29.71 in WSW 1.4 mph 3.5 mph 98 % 0.00 in
02:58 57.8 °F 57.2 °F 29.71 in WSW 3.0 mph 5.8 mph 98 % 0.00 in
03:03 57.8 °F 57.2 °F 29.72 in WSW 1.3 mph 3.5 mph 98 % 0.00 in
03:08 57.7 °F 57.1 °F 29.72 in SSW 4.2 mph 5.0 mph 98 % 0.00 in
03:13 57.7 °F 57.1 °F 29.72 in SW 1.9 mph 5.0 mph 98 % 0.00 in
03:18 57.7 °F 57.1 °F 29.72 in SSW 4.3 mph 4.6 mph 98 % 0.00 in
03:23 57.7 °F 57.1 °F 29.72 in SSW 2.0 mph 5.8 mph 98 % 0.00 in
03:29 57.6 °F 57.0 °F 29.72 in WSW 1.4 mph 4.6 mph 98 % 0.00 in
03:34 57.5 °F 56.9 °F 29.72 in West 0.9 mph 5.8 mph 98 % 0.00 in
03:39 57.4 °F 56.8 °F 29.73 in SW 2.8 mph 6.9 mph 98 % 0.00 in
03:44 57.1 °F 56.5 °F 29.73 in SSW 5.7 mph 8.0 mph 98 % 0.00 in
03:49 56.9 °F 56.3 °F 29.74 in SW 4.0 mph 13.8 mph 98 % 0.00 in
03:54 56.7 °F 56.1 °F 29.74 in West 9.2 mph 11.5 mph 98 % 0.00 in
03:59 56.4 °F 55.8 °F 29.74 in WSW 5.4 mph 7.0 mph 98 % 0.00 in
04:04 56.3 °F 55.5 °F 29.74 in WNW 4.7 mph 11.5 mph 97 % 0.00 in
04:09 56.1 °F 55.3 °F 29.74 in WSW 6.5 mph 11.5 mph 97 % 0.00 in
04:14 56.0 °F 54.9 °F 29.75 in WSW 2.3 mph 6.9 mph 96 % 0.00 in
04:19 55.9 °F 54.8 °F 29.76 in West 5.1 mph 11.0 mph 96 % 0.00 in
04:24 55.8 °F 54.4 °F 29.76 in West 0.3 mph 8.1 mph 95 % 0.00 in
04:29 55.7 °F 54.3 °F 29.77 in West 4.8 mph 8.1 mph 95 % 0.00 in
04:34 55.7 °F 54.0 °F 29.77 in West 0.6 mph 4.6 mph 94 % 0.00 in
04:39 55.7 °F 54.0 °F 29.77 in West 3.8 mph 6.9 mph 94 % 0.00 in
04:44 55.6 °F 53.6 °F 29.77 in WNW 3.4 mph 5.8 mph 93 % 0.00 in
04:49 55.5 °F 53.5 °F 29.79 in West 7.1 mph 11.0 mph 93 % 0.00 in
04:55 55.4 °F 53.1 °F 29.79 in NW 6.8 mph 10.4 mph 92 % 0.00 in
05:00 55.1 °F 52.5 °F 29.80 in WNW 2.6 mph 9.0 mph 91 % 0.00 in
05:05 54.6 °F 51.4 °F 29.81 in NW 7.5 mph 11.5 mph 89 % 0.00 in
05:10 53.9 °F 50.1 °F 29.82 in NW 3.9 mph 11.5 mph 87 % 0.00 in
05:15 52.8 °F 48.7 °F 29.82 in WNW 5.4 mph 9.2 mph 86 % 0.00 in
05:20 52.1 °F 47.7 °F 29.82 in WNW 5.3 mph 10.0 mph 85 % 0.00 in
05:25 51.1 °F 46.1 °F 29.82 in NW 5.4 mph 11.5 mph 83 % 0.00 in
05:30 50.4 °F 46.1 °F 29.82 in NW 3.3 mph 8.0 mph 85 % 0.00 in
05:35 50.0 °F 46.0 °F 29.83 in West 5.2 mph 8.1 mph 86 % 0.00 in
05:40 49.7 °F 46.0 °F 29.83 in West 3.7 mph 5.8 mph 87 % 0.00 in
05:45 49.6 °F 46.2 °F 29.83 in West 5.3 mph 11.5 mph 88 % 0.00 in
05:50 49.3 °F 45.9 °F 29.83 in NW 7.0 mph 9.2 mph 88 % 0.00 in
05:55 49.1 °F 45.4 °F 29.84 in West 2.2 mph 7.0 mph 87 % 0.00 in
06:00 48.9 °F 45.2 °F 29.84 in West 4.1 mph 6.9 mph 87 % 0.00 in
06:05 48.7 °F 44.7 °F 29.85 in WNW 5.1 mph 8.1 mph 86 % 0.00 in
06:10 48.6 °F 44.6 °F 29.85 in NNW 5.4 mph 12.0 mph 86 % 0.00 in
06:15 48.4 °F 44.1 °F 29.86 in WNW 5.0 mph 8.0 mph 85 % 0.00 in
06:20 47.9 °F 43.3 °F 29.86 in NW 4.7 mph 8.1 mph 84 % 0.00 in
06:21 48.0 °F 43.4 °F 29.86 in WNW 5.0 mph 13.0 mph 84 % 0.00 in
06:26 47.5 °F 43.2 °F 29.87 in NW 5.0 mph 9.0 mph 85 % 0.00 in
06:31 47.0 °F 42.7 °F 29.87 in NW 3.0 mph 7.0 mph 85 % 0.00 in
06:36 46.4 °F 42.4 °F 29.88 in NW 4.3 mph 11.5 mph 86 % 0.00 in
06:41 46.0 °F 42.4 °F 29.88 in NNW 6.0 mph 12.0 mph 87 % 0.00 in
06:46 45.6 °F 42.3 °F 29.88 in NNW 5.0 mph 12.0 mph 88 % 0.00 in
06:51 45.4 °F 42.0 °F 29.89 in NNW 3.0 mph 10.0 mph 88 % 0.00 in
06:56 45.0 °F 41.7 °F 29.91 in NNW 2.0 mph 8.0 mph 88 % 0.00 in
07:01 44.6 °F 41.3 °F 29.91 in NW 3.9 mph 9.2 mph 88 % 0.00 in
07:06 44.1 °F 40.8 °F 29.91 in NW 4.0 mph 5.0 mph 88 % 0.00 in
07:12 43.5 °F 40.2 °F 29.91 in NNW 4.2 mph 5.0 mph 88 % 0.00 in
07:17 43.1 °F 39.8 °F 29.92 in NNW 2.7 mph 9.2 mph 88 % 0.00 in
07:22 42.7 °F 39.4 °F 29.92 in North 6.2 mph 11.5 mph 88 % 0.00 in
07:27 42.4 °F 39.1 °F 29.92 in NNE 4.0 mph 6.9 mph 88 % 0.00 in
07:32 42.1 °F 38.8 °F 29.93 in NNE 1.7 mph 4.6 mph 88 % 0.00 in
07:37 41.9 °F 38.9 °F 29.93 in NNE 1.9 mph 4.6 mph 89 % 0.00 in
07:42 41.7 °F 38.7 °F 29.95 in NNW 4.6 mph 6.9 mph 89 % 0.00 in
07:47 41.4 °F 38.1 °F 29.94 in North 2.5 mph 6.9 mph 88 % 0.00 in
07:52 41.2 °F 37.9 °F 29.95 in North 3.9 mph 8.0 mph 88 % 0.00 in
07:57 41.0 °F 37.7 °F 29.95 in NNE 5.7 mph 6.9 mph 88 % 0.00 in
08:02 40.8 °F 37.5 °F 29.95 in NNW 5.2 mph 8.1 mph 88 % 0.00 in
08:07 40.7 °F 37.4 °F 29.96 in North 6.8 mph 11.5 mph 88 % 0.00 in
08:12 40.5 °F 37.2 °F 29.97 in NNW 5.0 mph 9.0 mph 88 % 0.00 in
08:17 40.4 °F 37.1 °F 29.97 in NNW 4.9 mph 5.8 mph 88 % 0.00 in
08:22 40.4 °F 37.1 °F 29.97 in North 0.5 mph 6.9 mph 88 % 0.00 in
08:27 40.4 °F 37.1 °F 29.97 in NW 3.8 mph 5.8 mph 88 % 0.00 in
08:32 40.3 °F 37.0 °F 29.98 in NNW 3.7 mph 6.0 mph 88 % 0.00 in
08:37 40.3 °F 37.0 °F 29.99 in WNW 6.8 mph 10.4 mph 88 % 0.00 in
08:43 40.2 °F 36.6 °F 29.99 in North 4.5 mph 9.2 mph 87 % 0.00 in
08:48 40.3 °F 36.7 °F 29.99 in NNW 4.9 mph 9.0 mph 87 % 0.00 in
08:53 40.4 °F 36.8 °F 30.00 in NW 3.1 mph 8.1 mph 87 % 0.00 in
08:58 40.5 °F 36.9 °F 29.99 in NNW 3.1 mph 5.0 mph 87 % 0.00 in
09:03 40.6 °F 37.0 °F 30.01 in NNW 5.5 mph 10.4 mph 87 % 0.00 in
09:08 40.6 °F 36.7 °F 30.00 in NW 4.4 mph 8.1 mph 86 % 0.00 in
09:13 40.5 °F 36.6 °F 30.00 in North 5.8 mph 9.2 mph 86 % 0.00 in
09:18 40.4 °F 36.5 °F 30.01 in NNW 4.0 mph 4.6 mph 86 % 0.00 in
09:23 40.4 °F 36.5 °F 30.01 in NNW 3.6 mph 5.0 mph 86 % 0.00 in
09:28 40.4 °F 36.5 °F 30.01 in NW 3.4 mph 7.0 mph 86 % 0.00 in
09:33 40.3 °F 36.4 °F 30.01 in NNW 5.1 mph 9.2 mph 86 % 0.00 in
09:38 40.2 °F 36.3 °F 30.02 in NNW 3.1 mph 8.1 mph 86 % 0.00 in
09:43 40.1 °F 36.2 °F 30.02 in NNW 6.1 mph 8.1 mph 86 % 0.00 in
09:48 40.0 °F 36.2 °F 30.02 in NNW 1.6 mph 3.5 mph 86 % 0.00 in
09:53 39.9 °F 36.1 °F 30.02 in North 5.2 mph 6.0 mph 86 % 0.00 in
09:58 39.8 °F 36.0 °F 30.03 in NW 1.7 mph 3.5 mph 86 % 0.00 in
10:03 39.7 °F 35.9 °F 30.04 in WNW 3.8 mph 6.9 mph 86 % 0.00 in
10:08 39.6 °F 35.8 °F 30.04 in NNE 0.8 mph 3.5 mph 86 % 0.00 in
10:13 39.6 °F 36.0 °F 30.05 in WNW 1.3 mph 5.8 mph 87 % 0.00 in
10:19 39.5 °F 36.0 °F 30.06 in North 3.6 mph 4.6 mph 87 % 0.00 in
10:24 39.5 °F 36.0 °F 30.07 in NW 1.6 mph 5.0 mph 87 % 0.00 in
10:29 39.5 °F 35.7 °F 30.06 in NNW 4.6 mph 5.8 mph 86 % 0.00 in
10:34 39.5 °F 35.7 °F 30.07 in Calm   3.5 mph 86 % 0.00 in
10:39 39.5 °F 35.7 °F 30.07 in NW 4.0 mph 7.0 mph 86 % 0.00 in
10:44 39.4 °F 35.3 °F 30.06 in NNE 5.0 mph 8.0 mph 85 % 0.00 in
10:49 39.2 °F 35.1 °F 30.07 in North 2.7 mph 5.8 mph 85 % 0.00 in
10:54 39.1 °F 35.0 °F 30.07 in NNE 5.4 mph 8.1 mph 85 % 0.00 in
10:59 38.9 °F 34.5 °F 30.06 in North 3.3 mph 6.9 mph 84 % 0.00 in
11:04 38.9 °F 34.5 °F 30.07 in NNW 5.2 mph 10.4 mph 84 % 0.00 in
11:09 38.9 °F 34.2 °F 30.07 in NNW 5.8 mph 10.4 mph 83 % 0.00 in
11:14 39.0 °F 34.6 °F 30.07 in NNE 4.1 mph 8.1 mph 84 % 0.00 in
11:19 39.1 °F 34.7 °F 30.07 in NNE 4.4 mph 5.8 mph 84 % 0.00 in
11:24 39.1 °F 34.7 °F 30.08 in NNW 3.1 mph 5.0 mph 84 % 0.00 in
11:29 39.1 °F 34.7 °F 30.08 in NNE 2.1 mph 4.6 mph 84 % 0.00 in
11:34 39.2 °F 34.5 °F 30.08 in North 5.1 mph 9.2 mph 83 % 0.00 in
11:39 39.2 °F 34.2 °F 30.09 in NNE 2.5 mph 6.9 mph 82 % 0.00 in
11:44 39.2 °F 34.5 °F 30.09 in NNW 2.7 mph 4.6 mph 83 % 0.00 in
11:50 39.2 °F 34.5 °F 30.09 in North 1.5 mph 4.6 mph 83 % 0.00 in
11:55 39.2 °F 34.2 °F 30.09 in NNE 3.2 mph 6.0 mph 82 % 0.00 in
12:00 39.1 °F 33.8 °F 30.08 in NW 1.9 mph 9.2 mph 81 % 0.00 in
12:05 39.1 °F 33.8 °F 30.09 in North 3.8 mph 5.8 mph 81 % 0.00 in
12:10 39.1 °F 33.5 °F 30.09 in North 1.5 mph 4.6 mph 80 % 0.00 in
12:15 39.2 °F 33.9 °F 30.09 in North 3.3 mph 5.8 mph 81 % 0.00 in
12:20 39.2 °F 33.9 °F 30.10 in North 2.4 mph 4.6 mph 81 % 0.00 in
12:25 39.3 °F 34.0 °F 30.10 in NNW 2.0 mph 4.6 mph 81 % 0.00 in
12:30 39.3 °F 34.0 °F 30.09 in NW 5.2 mph 8.1 mph 81 % 0.00 in
12:35 39.3 °F 33.3 °F 30.09 in NNW 3.0 mph 4.6 mph 79 % 0.00 in
12:40 39.2 °F 32.6 °F 30.10 in North 5.6 mph 8.1 mph 77 % 0.00 in
12:45 39.0 °F 32.1 °F 30.10 in North 5.1 mph 7.0 mph 76 % 0.00 in
12:50 39.0 °F 32.1 °F 30.11 in North 4.0 mph 6.9 mph 76 % 0.00 in
12:55 39.0 °F 32.1 °F 30.11 in North 3.8 mph 5.0 mph 76 % 0.00 in
13:00 39.0 °F 32.4 °F 30.11 in North 2.4 mph 4.0 mph 77 % 0.00 in
13:06 39.1 °F 32.5 °F 30.11 in North 3.0 mph 5.0 mph 77 % 0.00 in
13:11 39.3 °F 33.0 °F 30.11 in North 1.0 mph 6.0 mph 78 % 0.00 in
13:16 39.4 °F 33.5 °F 30.11 in NNW 2.0 mph 5.0 mph 79 % 0.00 in
13:21 39.5 °F 32.9 °F 30.12 in NNW 1.0 mph 7.0 mph 77 % 0.00 in
13:26 39.6 °F 32.9 °F 30.11 in NNW 2.0 mph 6.0 mph 77 % 0.00 in
13:31 39.6 °F 32.7 °F 30.11 in NNW 2.0 mph 5.0 mph 76 % 0.00 in
13:36 39.6 °F 32.7 °F 30.11 in NNW 1.4 mph 5.0 mph 76 % 0.00 in
13:41 39.6 °F 32.0 °F 30.11 in North 2.0 mph 7.0 mph 74 % 0.00 in
13:46 39.7 °F 32.4 °F 30.11 in NW 2.8 mph 6.9 mph 75 % 0.00 in
13:50 39.7 °F 32.4 °F 30.12 in NNW 2.2 mph 4.0 mph 75 % 0.00 in
13:56 39.7 °F 32.5 °F 30.12 in NNW 5.0 mph 7.0 mph 75 % 0.00 in
14:01 39.8 °F 32.2 °F 30.12 in NW 4.9 mph 8.1 mph 74 % 0.00 in
14:06 40.0 °F 32.7 °F 30.12 in NNW 2.6 mph 5.8 mph 75 % 0.00 in
14:11 40.2 °F 32.6 °F 30.12 in NNW 4.1 mph 6.0 mph 74 % 0.00 in
14:16 40.4 °F 32.4 °F 30.13 in NNW 3.8 mph 8.1 mph 73 % 0.00 in
14:21 40.4 °F 32.4 °F 30.13 in WNW 2.9 mph 7.0 mph 73 % 0.00 in
14:26 40.6 °F 33.0 °F 30.13 in North 3.1 mph 6.9 mph 74 % 0.00 in
14:31 40.7 °F 32.4 °F 30.14 in NW 2.6 mph 5.8 mph 72 % 0.00 in
14:36 40.8 °F 31.4 °F 30.14 in NW 4.0 mph 6.9 mph 69 % 0.00 in
14:41 40.9 °F 31.5 °F 30.14 in NW 6.1 mph 10.4 mph 69 % 0.00 in
14:46 40.9 °F 31.5 °F 30.15 in NNW 4.7 mph 7.0 mph 69 % 0.00 in
14:51 40.8 °F 31.4 °F 30.16 in North 2.3 mph 4.6 mph 69 % 0.00 in
14:56 40.6 °F 31.2 °F 30.16 in NNW 3.4 mph 5.8 mph 69 % 0.00 in
15:01 40.5 °F 31.1 °F 30.17 in NNW 4.0 mph 9.2 mph 69 % 0.00 in
15:06 40.4 °F 31.0 °F 30.17 in NW 1.9 mph 8.1 mph 69 % 0.00 in
15:11 40.2 °F 30.8 °F 30.17 in NNW 2.3 mph 4.6 mph 69 % 0.00 in
15:16 40.1 °F 30.7 °F 30.17 in North 3.4 mph 6.9 mph 69 % 0.00 in
15:22 39.9 °F 30.9 °F 30.17 in North 2.2 mph 4.0 mph 70 % 0.00 in
15:27 39.9 °F 30.5 °F 30.18 in NW 2.1 mph 3.5 mph 69 % 0.00 in
15:32 39.9 °F 30.2 °F 30.17 in NNE 4.9 mph 6.9 mph 68 % 0.00 in
15:37 39.9 °F 30.5 °F 30.17 in NNW 1.8 mph 3.5 mph 69 % 0.00 in
15:42 40.0 °F 31.4 °F 30.17 in NNW 1.4 mph 3.5 mph 71 % 0.00 in
15:47 39.9 °F 31.6 °F 30.18 in NNE 0.2 mph 2.3 mph 72 % 0.00 in
15:52 39.8 °F 31.2 °F 30.18 in NNW 1.7 mph 4.6 mph 71 % 0.00 in
15:57 39.8 °F 31.2 °F 30.19 in North 1.4 mph 3.5 mph 71 % 0.00 in
16:02 39.7 °F 31.1 °F 30.19 in NW 1.3 mph 4.6 mph 71 % 0.00 in
16:07 39.7 °F 31.4 °F 30.19 in NNW 1.1 mph 4.6 mph 72 % 0.00 in
16:12 39.6 °F 31.0 °F 30.20 in NNE 1.0 mph 8.1 mph 71 % 0.00 in
16:17 39.6 °F 31.3 °F 30.20 in North 0.1 mph 2.3 mph 72 % 0.00 in
16:22 39.5 °F 31.9 °F 30.19 in North 2.5 mph 3.5 mph 74 % 0.00 in
16:27 39.5 °F 30.9 °F 30.20 in NW 2.7 mph 8.1 mph 71 % 0.00 in
16:33 39.5 °F 30.5 °F 30.20 in North 4.2 mph 8.1 mph 70 % 0.00 in
16:38 39.5 °F 30.5 °F 30.20 in NNW 2.3 mph 3.5 mph 70 % 0.00 in
16:43 39.5 °F 30.5 °F 30.20 in NNW 0.6 mph 4.6 mph 70 % 0.00 in
16:48 39.4 °F 30.4 °F 30.20 in NNW 1.3 mph 3.5 mph 70 % 0.00 in
16:53 39.3 °F 30.3 °F 30.21 in Calm     70 % 0.00 in
16:58 39.3 °F 30.3 °F 30.22 in NNW 1.1 mph 2.3 mph 70 % 0.00 in
17:03 39.2 °F 30.6 °F 30.22 in NNW 0.3 mph 2.3 mph 71 % 0.00 in
17:08 39.1 °F 30.5 °F 30.23 in NNW 0.1 mph 1.2 mph 71 % 0.00 in
17:13 39.0 °F 30.4 °F 30.23 in Calm     71 % 0.00 in
17:18 38.9 °F 29.9 °F 30.24 in NNW 0.3 mph 1.2 mph 70 % 0.00 in
17:23 38.7 °F 29.8 °F 30.24 in Calm     70 % 0.00 in
17:28 38.6 °F 30.0 °F 30.24 in Calm     71 % 0.00 in
17:33 38.4 °F 29.8 °F 30.24 in Calm     71 % 0.00 in
17:38 38.3 °F 30.1 °F 30.25 in NNW 0.1 mph 1.2 mph 72 % 0.00 in
17:43 38.1 °F 29.9 °F 30.25 in Calm     72 % 0.00 in
17:49 37.9 °F 30.0 °F 30.25 in Calm     73 % 0.00 in
17:54 37.7 °F 29.8 °F 30.25 in Calm     73 % 0.00 in
17:59 37.4 °F 29.9 °F 30.26 in Calm     74 % 0.00 in
18:04 37.2 °F 29.7 °F 30.25 in Calm     74 % 0.00 in
18:09 37.0 °F 29.8 °F 30.26 in Calm     75 % 0.00 in
18:14 36.8 °F 29.6 °F 30.26 in Calm     75 % 0.00 in
18:19 36.6 °F 29.7 °F 30.26 in NNW 0.2 mph 2.3 mph 76 % 0.00 in
18:24 36.5 °F 29.7 °F 30.26 in Calm   1.2 mph 76 % 0.00 in
18:29 36.3 °F 29.5 °F 30.27 in NNW 0.8 mph 2.3 mph 76 % 0.00 in
18:34 36.2 °F 29.0 °F 30.27 in NNW 0.6 mph 2.3 mph 75 % 0.00 in
18:39 36.1 °F 28.9 °F 30.27 in NNW 0.3 mph 3.5 mph 75 % 0.00 in
18:44 36.1 °F 28.9 °F 30.28 in NNW 1.1 mph 2.0 mph 75 % 0.00 in
18:49 36.1 °F 28.9 °F 30.28 in NNW 0.1 mph 1.2 mph 75 % 0.00 in
18:54 36.1 °F 28.9 °F 30.28 in Calm   2.3 mph 75 % 0.00 in
18:59 36.1 °F 28.9 °F 30.28 in NNW 0.1 mph 1.0 mph 75 % 0.00 in
19:04 36.1 °F 28.9 °F 30.28 in Calm     75 % 0.00 in
19:09 36.0 °F 29.2 °F 30.29 in Calm     76 % 0.00 in
19:15 35.9 °F 29.1 °F 30.29 in Calm     76 % 0.00 in
19:20 35.9 °F 29.1 °F 30.29 in Calm     76 % 0.00 in
19:25 35.7 °F 29.2 °F 30.29 in Calm     77 % 0.00 in
19:30 35.6 °F 29.4 °F 30.29 in Calm     78 % 0.00 in
19:35 35.5 °F 29.3 °F 30.30 in NNW 1.7 mph 3.5 mph 78 % 0.00 in
19:40 35.3 °F 29.1 °F 30.30 in NNW 1.0 mph 2.3 mph 78 % 0.00 in
19:45 35.2 °F 29.3 °F 30.30 in NNW 0.1 mph 1.2 mph 79 % 0.00 in
19:50 34.9 °F 29.4 °F 30.30 in NNW 1.7 mph 4.0 mph 80 % 0.00 in
19:55 34.8 °F 29.0 °F 30.31 in North 1.1 mph 5.0 mph 79 % 0.00 in
20:00 34.8 °F 29.0 °F 30.32 in WNW 0.1 mph 1.2 mph 79 % 0.00 in
20:05 34.8 °F 29.0 °F 30.32 in North 3.5 mph 6.0 mph 79 % 0.00 in
20:10 34.9 °F 28.7 °F 30.32 in North 3.3 mph 4.6 mph 78 % 0.00 in
20:15 34.9 °F 28.7 °F 30.33 in NW 3.0 mph 4.6 mph 78 % 0.00 in
20:20 35.1 °F 28.6 °F 30.33 in North 5.3 mph 5.8 mph 77 % 0.00 in
20:25 35.1 °F 28.9 °F 30.33 in NNE 2.8 mph 9.2 mph 78 % 0.00 in
20:30 35.1 °F 28.9 °F 30.33 in North 2.3 mph 3.5 mph 78 % 0.00 in
20:35 35.1 °F 28.9 °F 30.34 in NNE 2.2 mph 3.5 mph 78 % 0.00 in
20:40 35.0 °F 28.5 °F 30.34 in North 3.6 mph 5.8 mph 77 % 0.00 in
20:45 35.0 °F 28.2 °F 30.35 in NNW 3.4 mph 6.9 mph 76 % 0.00 in
20:51 34.9 °F 28.1 °F 30.35 in North 3.0 mph 7.0 mph 76 % 0.00 in
20:56 34.8 °F 28.0 °F 30.35 in North 3.0 mph 7.0 mph 76 % 0.00 in
21:01 34.7 °F 27.9 °F 30.35 in North 0.7 mph 3.5 mph 76 % 0.00 in
21:06 34.6 °F 27.8 °F 30.35 in North 2.0 mph 6.0 mph 76 % 0.00 in
21:11 34.5 °F 27.4 °F 30.36 in NNE 3.0 mph 6.0 mph 75 % 0.00 in
21:16 34.4 °F 27.0 °F 30.36 in North 3.0 mph 6.0 mph 74 % 0.00 in
21:21 34.4 °F 27.0 °F 30.36 in North 2.0 mph 6.0 mph 74 % 0.00 in
21:26 34.3 °F 27.2 °F 30.36 in North 4.7 mph 6.0 mph 75 % 0.00 in
21:31 34.2 °F 26.8 °F 30.37 in North 1.0 mph 5.0 mph 74 % 0.00 in
21:36 34.1 °F 26.7 °F 30.36 in NNW 2.0 mph 5.0 mph 74 % 0.00 in
21:41 34.1 °F 27.0 °F 30.37 in North 2.0 mph 5.0 mph 75 % 0.00 in
21:46 34.0 °F 26.9 °F 30.37 in NNW 1.0 mph 5.0 mph 75 % 0.00 in
21:51 33.9 °F 26.8 °F 30.37 in North 2.0 mph 7.0 mph 75 % 0.00 in
21:56 33.8 °F 26.7 °F 30.37 in Calm   4.0 mph 75 % 0.00 in
22:01 33.7 °F 26.6 °F 30.38 in NNE 0.7 mph 5.0 mph 75 % 0.00 in
22:06 33.5 °F 26.4 °F 30.38 in Calm   6.0 mph 75 % 0.00 in
22:11 33.4 °F 26.3 °F 30.38 in North 1.0 mph 5.0 mph 75 % 0.00 in
22:16 33.3 °F 26.2 °F 30.38 in North 2.0 mph 7.0 mph 75 % 0.00 in
22:21 33.2 °F 25.8 °F 30.38 in North 5.0 mph 9.0 mph 74 % 0.00 in
22:26 33.2 °F 25.5 °F 30.39 in North 6.0 mph 12.0 mph 73 % 0.00 in
22:31 33.1 °F 25.1 °F 30.39 in North 1.5 mph 8.1 mph 72 % 0.00 in
22:36 33.0 °F 25.0 °F 30.40 in North 5.2 mph 5.2 mph 72 % 0.00 in
22:41 33.0 °F 25.0 °F 30.40 in NE 3.6 mph 5.8 mph 72 % 0.00 in
22:47 33.0 °F 25.0 °F 30.40 in NNE 2.2 mph 4.0 mph 72 % 0.00 in
22:52 32.9 °F 25.2 °F 30.40 in North 1.3 mph 4.6 mph 73 % 0.00 in
22:57 32.8 °F 25.1 °F 30.40 in NNE 1.5 mph 3.5 mph 73 % 0.00 in
23:02 32.7 °F 25.0 °F 30.40 in North 4.4 mph 8.1 mph 73 % 0.00 in
23:07 32.6 °F 24.6 °F 30.40 in North 3.7 mph 9.2 mph 72 % 0.00 in
23:12 32.5 °F 24.5 °F 30.40 in North 3.3 mph 6.9 mph 72 % 0.00 in
23:17 32.4 °F 24.4 °F 30.41 in North 2.0 mph 3.5 mph 72 % 0.00 in
23:22 32.3 °F 24.3 °F 30.41 in North 1.1 mph 2.3 mph 72 % 0.00 in
23:27 32.3 °F 24.3 °F 30.41 in North 2.1 mph 3.5 mph 72 % 0.00 in
23:32 32.1 °F 24.1 °F 30.42 in NE 3.6 mph 6.9 mph 72 % 0.00 in
23:37 32.0 °F 24.0 °F 30.42 in NNW 4.2 mph 8.0 mph 72 % 0.00 in
23:42 32.0 °F 23.7 °F 30.42 in North 4.6 mph 8.1 mph 71 % 0.00 in
23:47 31.9 °F 23.6 °F 30.42 in NW 2.2 mph 5.8 mph 71 % 0.00 in
23:52 31.9 °F 23.6 °F 30.42 in North 0.4 mph 3.5 mph 71 % 0.00 in
23:57 31.8 °F 23.1 °F 30.43 in North 2.6 mph 9.2 mph 70 % 0.00 in
Crab Meadow Weather
Compliments of Weather Underground - 3 mb

Script developed by  Jim McMurry - jmcmurry@mwt.net Adapted for the template by  Wim van der Kuil - Leuven-Template.eu

Weather Terms: Severe Thunderstorm Watch - Conditions are favorable for the development of severe thunderstorms in and close to the watch area. These watches are issued for large areas by the Storm Prediction Center in Norman, Oklahoma, and are usually valid for four to six hours.